Tracking 18843 objects as of 21-November-2017
HD Live streaming from Space Station
objects crossing your sky now

COSMOS 374

Track COSMOS 374 now!
10-day predictions
COSMOS 374 is classified as:


NORAD ID: 4594
Int'l Code: 1970-089A
Perigee: 540.3 km
Apogee: 2,038.4 km
Inclination: 62.9 °
Period: 111.2 minutes
Semi major axis: 7660 km
RCS: 0.5589 m2 (medium)
Launch date: October 23, 1970
Source: Commonwealth of Independent States (former USSR) (CIS)
Launch site: TYURATAM MISSILE AND SPACE COMPLEX (TTMTR)
aabbcc
Your satellite tracking list
Your tracking list is empty




NASA's NSSDC Master Catalog

Two Line Element Set (TLE):
1 04594U 70089A   17324.09152920 -.00000010  00000-0  35561-4 0  9997
2 04594  62.9321 170.2725 0977890 136.3227 231.9530 12.94881767263428
Source of the keplerian elements: AFSPC